Location: ?????? ??????
(44.3742°N, 135.2221°E)
Time: 06:06:57
(UTC+00:00)

Cosmos 1703 - Pass Details

Date: 19 May 2025
Orbit: 444 x 453 km, 82.5° (Epoch: 22 June)

Event Time Altitude Azimuth Distance (km) Brightness Sun altitude
Exits shadow 17:33:52 39° 221° (SW) 686 3.3 -16.2°
Maximum altitude 17:34:52 59° 280° (W) 528 3.0 -16.1°
Drops below altitude 10° 17:38:18 10° 1° (N) 1,594 6.4 -15.7°
Sets 17:40:24 0° 5° (N) 2,475 7.6 -15.5°
